This demonstration page uses our WeatherBlox Daily Observations layout. Learn more.

Left ArrowRight Arrow

44.8408, -93.29828

Hourly Observations for April 7, 2022

Temp ( °F °C ) Dew Point ( °F °C ) Humidity (%) Winds ( mph kmh ) Pressure ( in mb ) Visibility ( mi km ) Precip ( " mm )
12:16 am 00:16 Cloudy with Light Snow 34 1.1 31 -0.6 89 89 WNW 14 22 29.49 999 10 16 0.00 0.00
12:53 am 00:53 Cloudy 34 1.1 31 -0.6 89 89 WNW 15 24 29.46 998 9 14 0.00 0.00
1:08 am 01:08 Cloudy 34 1.1 30 -1.1 85 85 WNW 17 28 29.48 998 10 16 0.00 0.00
1:53 am 01:53 Cloudy 34 1.1 30 -1.1 85 85 NW 13 20 29.46 998 10 16 0.00 0.00
2:53 am 02:53 Cloudy 34 1.1 30 -1.1 85 85 NW 16 26 29.46 998 10 16 0.00 0.00
3:13 am 03:13 Cloudy with Light Snow 33 0.6 30 -1.1 89 89 WNW 14 22 29.48 998 7 11 0.00 0.00
3:53 am 03:53 Cloudy with Light Snow 33 0.6 30 -1.1 89 89 WNW 15 24 29.46 998 6 10 0.01 0.25
4:06 am 04:06 Cloudy with Light Snow 32 0 31 -0.6 96 96 WNW 13 20 29.47 998 5 8 0.00 0.00
4:19 am 04:19 Cloudy with Light Snow 32 0 31 -0.6 96 96 WNW 15 24 29.47 998 5 8 0.00 0.00
4:53 am 04:53 Cloudy with Light Snow 33 0.6 31 -0.6 92 92 NW 14 22 29.45 997 6 10 0.02 0.51
5:00 am 05:00 Cloudy with Light Snow 32 0 31 -0.6 96 96 WNW 14 22 29.47 998 4 6 0.00 0.00
5:53 am 05:53 Cloudy with Light Snow 33 0.6 31 -0.6 92 92 NW 15 24 29.46 998 7 11 0.02 0.51
6:53 am 06:53 Cloudy with Light Snow 33 0.6 31 -0.6 92 92 NW 15 24 29.49 999 5 8 0.03 0.76
7:24 am 07:24 Cloudy with Light Wintry Mix 33 0.6 32 0 96 96 NNW 14 22 29.51 999 7 11 0.02 0.51
7:53 am 07:53 Cloudy with Light Rain/Snow 34 1.1 33 0.6 97 97 NNW 13 20 29.51 999 9 14 0.02 0.51
8:41 am 08:41 Cloudy with Light Rain 35 1.7 33 0.6 93 93 NNW 17 28 29.54 1000 9 14 0.01 0.25
8:53 am 08:53 Cloudy with Light Rain 35 1.7 33 0.6 93 93 NNW 13 20 29.52 1000 9 14 0.02 0.51
9:31 am 09:31 Cloudy with Light Rain 36 2.2 34 1.1 93 93 NNW 16 26 29.55 1001 9 14 0.00 0.00
9:53 am 09:53 Cloudy with Light Rain/Snow 36 2.2 33 0.6 89 89 NNW 16 26 29.54 1000 8 13 0.01 0.25
10:02 am 10:02 Cloudy with Light Rain/Snow 36 2.2 33 0.6 89 89 NNW 20 31 29.56 1001 8 13 0.00 0.00
10:51 am 10:51 Cloudy with Light Rain 36 2 34 1 93 93 NNW 21 33 29.58 1002 9 14 0.01 0.25
10:53 am 10:53 Cloudy with Light Rain 35 1.7 32 0 89 89 NNW 21 33 29.57 1001 9 14 0.01 0.25
11:09 am 11:09 Cloudy with Light Rain/Snow 36 2.2 32 0 86 86 NNW 18 30 29.59 1002 9 14 0.00 0.00
11:24 am 11:24 Cloudy with Light Rain/Snow 37 2.8 32 0 82 82 NNW 17 28 29.58 1002 10 16 0.00 0.00
11:45 am 11:45 Cloudy with Light Rain/Snow 38 3.3 32 0 79 79 N 24 39 29.59 1002 10 16 0.00 0.00
11:53 am 11:53 Cloudy with Light Rain/Snow 38 3.3 31 -0.6 76 76 N 21 33 29.58 1002 10 16 0.00 0.00
12:23 pm 12:23 Windy with Snow Likely 36 2.2 30 -1.1 79 79 NNW 20 31 29.61 1003 8 13 0.00 0.00
12:44 pm 12:44 Cloudy with Light Snow 37 2.8 30 -1.1 76 76 N 18 30 29.61 1003 9 14 0.00 0.00
12:53 pm 12:53 Cloudy 36 2.2 28 -2.2 73 73 NNW 16 26 29.60 1003 9 14 0.00 0.00
1:01 pm 13:01 Cloudy 37 2.8 29 -1.7 73 73 NNW 16 26 29.61 1003 10 16 0.00 0.00
1:05 pm 13:05 Windy with Snow Likely 36 2.2 28 -2.2 73 73 N 21 33 29.62 1003 10 16 0.00 0.00
1:12 pm 13:12 Windy with Snow Likely 36 2.2 28 -2.2 73 73 N 22 35 29.63 1003 8 13 0.00 0.00
1:38 pm 13:38 Cloudy with Light Snow 37 2.8 29 -1.7 73 73 N 16 26 29.64 1004 8 13 0.00 0.00
1:53 pm 13:53 Windy with Snow Likely 36 2.2 28 -2.2 73 73 N 20 31 29.63 1003 8 13 0.00 0.00
2:14 pm 14:14 Windy with Snow Likely 34 1.1 28 -2.2 79 79 NNW 22 35 29.66 1004 2 3 0.00 0.00
2:31 pm 14:31 Windy with Snow Likely 34 1.1 29 -1.7 82 82 N 22 35 29.67 1005 2 3 0.00 0.00
2:53 pm 14:53 Cloudy with Light Snow 34 1.1 29 -1.7 82 82 N 16 26 29.66 1005 2 3 0.00 0.00
3:00 pm 15:00 Cloudy with Light Snow 33 0.6 29 -1.7 85 85 NNW 17 28 29.68 1005 2 2 0.00 0.00
3:05 pm 15:05 Windy with Snow Likely 33 0.6 29 -1.7 85 85 N 22 35 29.69 1006 2 3 0.00 0.00
3:53 pm 15:53 Windy with Snow Likely 32 0 28 -2.2 85 85 NNW 21 33 29.70 1006 2 3 0.00 0.00
3:56 pm 15:56 Cloudy with Light Snow 32 0 28 -2.2 85 85 N 17 28 29.73 1007 1 2 0.00 0.00
4:37 pm 16:37 Cloudy with Light Snow 32 0 29 -1.7 88 88 N 18 30 29.74 1007 2 3 0.01 0.25
4:53 pm 16:53 Cloudy with Mist and Fog 32 0 28 -2.2 85 85 N 17 28 29.73 1007 2 3 0.01 0.25
4:59 pm 16:59 Cloudy with Light Snow 32 0 28 -2.2 85 85 N 17 28 29.76 1008 2 3 0.00 0.00
5:09 pm 17:09 Cloudy with Light Snow 32 0 28 -2.2 85 85 N 18 30 29.76 1008 5 8 0.00 0.00
5:30 pm 17:30 Cloudy with Haze 32 0 27 -2.8 82 82 N 16 26 29.77 1008 6 10 0.00 0.00
5:43 pm 17:43 Cloudy with Light Snow 32 0 27 -2.8 82 82 N 17 28 29.78 1008 5 8 0.00 0.00
5:53 pm 17:53 Cloudy with Light Snow 32 0 27 -2.8 82 82 N 16 26 29.76 1008 4 6 0.00 0.00
6:00 pm 18:00 Cloudy with Light Snow 32 0 27 -2.8 82 82 N 16 26 29.79 1009 3 4 0.00 0.00
6:18 pm 18:18 Cloudy with Light Snow 32 0 28 -2.2 85 85 N 13 20 29.80 1009 3 5 0.00 0.00
6:32 pm 18:32 Cloudy with Light Snow 32 0 27 -2.8 82 82 N 17 28 29.81 1009 2 3 0.00 0.00
6:53 pm 18:53 Cloudy with Light Snow 31 -0.6 28 -2.2 89 89 N 13 20 29.79 1009 2 3 0.00 0.00
7:14 pm 19:14 Cloudy with Light Snow 31 -0.6 27 -2.8 85 85 N 18 30 29.82 1010 2 3 0.00 0.00
7:53 pm 19:53 Cloudy with Light Snow 30 -1.1 26 -3.3 85 85 N 18 30 29.82 1010 2 3 0.00 0.00
8:08 pm 20:08 Windy with Snow Likely 30 -1.1 26 -3.3 85 85 N 21 33 29.85 1011 3 5 0.00 0.00
8:31 pm 20:31 Cloudy with Light Snow 30 -1.1 26 -3.3 85 85 N 16 26 29.86 1011 3 5 0.00 0.00
8:49 pm 20:49 Cloudy with Light Snow 30 -1 27 -3 86 86 N 17 28 29.86 1011 3 5 0.00 0.00
8:53 pm 20:53 Windy with Snow Likely 30 -1.1 27 -2.8 88 88 N 20 31 29.84 1011 3 5 0.00 0.00
9:53 pm 21:53 Cloudy with Light Snow 30 -1.1 27 -2.8 88 88 N 14 22 29.85 1011 3 5 0.00 0.00
9:55 pm 21:55 Cloudy with Light Snow 30 -1.1 27 -2.8 88 88 N 15 24 29.88 1012 3 4 0.00 0.00
10:07 pm 22:07 Cloudy with Light Snow 30 -1.1 27 -2.8 88 88 N 14 22 29.88 1012 3 5 0.00 0.00
10:25 pm 22:25 Cloudy with Light Snow 30 -1.1 27 -2.8 88 88 N 16 26 29.88 1012 3 5 0.00 0.00
10:53 pm 22:53 Cloudy with Light Snow 31 -0.6 27 -2.8 85 85 N 15 24 29.85 1011 5 8 0.00 0.00
11:53 pm 23:53 Cloudy with Light Snow 31 -0.6 27 -2.8 85 85 N 14 22 29.86 1011 9 14 0.00 0.00

Powered by AerisWeather